Year,Month,Day,Hour,Minute,Value (Times are PST for temperature in C)
2011,05,04,00,00,6.70
2011,05,04,00,01,6.70
2011,05,04,00,02,6.70
2011,05,04,00,03,6.70
2011,05,04,00,04,6.70
2011,05,04,00,05,6.70
2011,05,04,00,06,6.70
2011,05,04,00,07,6.70
2011,05,04,00,08,6.70
2011,05,04,00,09,6.70
2011,05,04,00,10,6.70
2011,05,04,00,11,6.70
2011,05,04,00,12,6.70
2011,05,04,00,13,6.70
2011,05,04,00,14,6.70
2011,05,04,00,15,6.70
2011,05,04,00,16,6.70
2011,05,04,00,17,6.60
2011,05,04,00,18,6.60
2011,05,04,00,19,6.70
2011,05,04,00,20,6.70
2011,05,04,00,21,6.70
2011,05,04,00,22,6.70
2011,05,04,00,23,6.70
2011,05,04,00,24,6.70
2011,05,04,00,25,6.70
2011,05,04,00,26,6.70
2011,05,04,00,27,6.70
2011,05,04,00,28,6.70
2011,05,04,00,29,6.70
2011,05,04,00,30,6.70
2011,05,04,00,31,6.70
2011,05,04,00,32,6.70
2011,05,04,00,33,6.70
2011,05,04,00,34,6.70
2011,05,04,00,35,6.70
2011,05,04,00,36,6.70
2011,05,04,00,37,6.60
2011,05,04,00,38,6.60
2011,05,04,00,39,6.60
2011,05,04,00,40,6.60
2011,05,04,00,41,6.60
2011,05,04,00,42,6.60
2011,05,04,00,43,6.60
2011,05,04,00,44,6.60
2011,05,04,00,45,6.60
2011,05,04,00,46,6.60
2011,05,04,00,47,6.60
2011,05,04,00,48,6.60
2011,05,04,00,49,6.60
2011,05,04,00,50,6.60
2011,05,04,00,51,6.60
2011,05,04,00,52,6.60
2011,05,04,00,53,6.60
2011,05,04,00,54,6.50
2011,05,04,00,55,6.50
2011,05,04,00,56,6.50
2011,05,04,00,57,6.50
2011,05,04,00,58,6.50
2011,05,04,00,59,6.50
2011,05,04,01,00,6.50
2011,05,04,01,01,6.50
2011,05,04,01,02,6.40
2011,05,04,01,03,6.50
2011,05,04,01,04,6.50
2011,05,04,01,05,6.50
2011,05,04,01,06,6.50
2011,05,04,01,07,6.50
2011,05,04,01,08,6.50
2011,05,04,01,09,6.50
2011,05,04,01,10,6.50
2011,05,04,01,11,6.40
2011,05,04,01,12,6.40
2011,05,04,01,13,6.40
2011,05,04,01,14,6.40
2011,05,04,01,15,6.40
2011,05,04,01,16,6.40
2011,05,04,01,17,6.40
2011,05,04,01,18,6.40
2011,05,04,01,19,6.40
2011,05,04,01,20,6.40
2011,05,04,01,21,6.40
2011,05,04,01,22,6.40
2011,05,04,01,23,6.40
2011,05,04,01,24,6.40
2011,05,04,01,25,6.40
2011,05,04,01,26,6.30
2011,05,04,01,27,6.30
2011,05,04,01,28,6.30
2011,05,04,01,29,6.30
2011,05,04,01,30,6.30
2011,05,04,01,31,6.30
2011,05,04,01,32,6.30
2011,05,04,01,33,6.30
2011,05,04,01,34,6.30
2011,05,04,01,35,6.30
2011,05,04,01,36,6.30
2011,05,04,01,37,6.20
2011,05,04,01,38,6.20
2011,05,04,01,39,6.20
2011,05,04,01,40,6.20
2011,05,04,01,41,6.20
2011,05,04,01,42,6.20
2011,05,04,01,43,6.20
2011,05,04,01,44,6.20
2011,05,04,01,45,6.20
2011,05,04,01,46,6.20
2011,05,04,01,47,6.20
2011,05,04,01,48,6.20
2011,05,04,01,49,6.20
2011,05,04,01,50,6.20
2011,05,04,01,51,6.20
2011,05,04,01,52,6.20
2011,05,04,01,53,6.20
2011,05,04,01,54,6.20
2011,05,04,01,55,6.20
2011,05,04,01,56,6.20
2011,05,04,01,57,6.20
2011,05,04,01,58,6.20
2011,05,04,01,59,6.20
2011,05,04,02,00,6.20
2011,05,04,02,01,6.20
2011,05,04,02,02,6.20
2011,05,04,02,03,6.20
2011,05,04,02,04,6.20
2011,05,04,02,05,6.20
2011,05,04,02,06,6.20
2011,05,04,02,07,6.20
2011,05,04,02,08,6.20
2011,05,04,02,09,6.20
2011,05,04,02,10,6.20
2011,05,04,02,11,6.20
2011,05,04,02,12,6.20
2011,05,04,02,13,6.20
2011,05,04,02,14,6.20
2011,05,04,02,15,6.20
2011,05,04,02,16,6.20
2011,05,04,02,17,6.20
2011,05,04,02,18,6.20
2011,05,04,02,19,6.20
2011,05,04,02,20,6.20
2011,05,04,02,21,6.20
2011,05,04,02,22,6.20
2011,05,04,02,23,6.20
2011,05,04,02,24,6.20
2011,05,04,02,25,6.20
2011,05,04,02,26,6.10
2011,05,04,02,27,6.10
2011,05,04,02,28,6.10
2011,05,04,02,29,6.10
2011,05,04,02,30,6.10
2011,05,04,02,31,6.10
2011,05,04,02,32,6.10
2011,05,04,02,33,6.10
2011,05,04,02,34,6.10
2011,05,04,02,35,6.10
2011,05,04,02,36,6.00
2011,05,04,02,37,6.00
2011,05,04,02,38,6.00
2011,05,04,02,39,6.00
2011,05,04,02,40,6.00
2011,05,04,02,41,6.00
2011,05,04,02,42,5.90
2011,05,04,02,43,5.90
2011,05,04,02,44,5.90
2011,05,04,02,45,5.90
2011,05,04,02,46,5.90
2011,05,04,02,47,5.90
2011,05,04,02,48,5.90
2011,05,04,02,49,5.90
2011,05,04,02,50,5.90
2011,05,04,02,51,5.90
2011,05,04,02,52,5.90
2011,05,04,02,53,5.90
2011,05,04,02,54,5.90
2011,05,04,02,55,5.90
2011,05,04,02,56,5.90
2011,05,04,02,57,5.90
2011,05,04,02,58,5.80
2011,05,04,02,59,5.80
2011,05,04,03,00,5.80
2011,05,04,03,01,5.80
2011,05,04,03,02,5.80
2011,05,04,03,03,5.80
2011,05,04,03,06,5.80
2011,05,04,03,07,5.80
2011,05,04,03,08,5.80
2011,05,04,03,09,5.80
2011,05,04,03,10,5.80
2011,05,04,03,11,5.70
2011,05,04,03,12,5.70
2011,05,04,03,13,5.70
2011,05,04,03,14,5.70
2011,05,04,03,15,5.70
2011,05,04,03,16,5.70
2011,05,04,03,17,5.70
2011,05,04,03,18,5.60
2011,05,04,03,19,5.60
2011,05,04,03,20,5.60
2011,05,04,03,21,5.60
2011,05,04,03,22,5.60
2011,05,04,03,23,5.50
2011,05,04,03,24,5.50
2011,05,04,03,25,5.50
2011,05,04,03,26,5.50
2011,05,04,03,27,5.50
2011,05,04,03,28,5.40
2011,05,04,03,29,5.40
2011,05,04,03,30,5.40
2011,05,04,03,31,5.40
2011,05,04,03,32,5.40
2011,05,04,03,33,5.40
2011,05,04,03,34,5.30
2011,05,04,03,35,5.30
2011,05,04,03,36,5.30
2011,05,04,03,37,5.30
2011,05,04,03,38,5.30
2011,05,04,03,39,5.40
2011,05,04,03,40,5.40
2011,05,04,03,41,5.40
2011,05,04,03,42,5.40
2011,05,04,03,43,5.40
2011,05,04,03,44,5.40
2011,05,04,03,45,5.30
2011,05,04,03,46,5.30
2011,05,04,03,47,5.30
2011,05,04,03,48,5.30
2011,05,04,03,49,5.30
2011,05,04,03,50,5.30
2011,05,04,03,51,5.20
2011,05,04,03,52,5.20
2011,05,04,03,53,5.20
2011,05,04,03,54,5.20
2011,05,04,03,55,5.20
2011,05,04,03,56,5.10
2011,05,04,03,57,5.10
2011,05,04,03,58,5.00
2011,05,04,03,59,5.00
2011,05,04,04,00,4.90
2011,05,04,04,01,4.80
2011,05,04,04,02,4.80
2011,05,04,04,03,4.80
2011,05,04,04,04,4.80
2011,05,04,04,05,4.70
2011,05,04,04,06,4.70
2011,05,04,04,07,4.70
2011,05,04,04,08,4.70
2011,05,04,04,09,4.60
2011,05,04,04,10,4.70
2011,05,04,04,11,4.60
2011,05,04,04,12,4.60
2011,05,04,04,13,4.60
2011,05,04,04,14,4.60
2011,05,04,04,15,4.50
2011,05,04,04,16,4.50
2011,05,04,04,17,4.50
2011,05,04,04,18,4.50
2011,05,04,04,19,4.50
2011,05,04,04,20,4.50
2011,05,04,04,21,4.50
2011,05,04,04,22,4.50
2011,05,04,04,23,4.50
2011,05,04,04,24,4.50
2011,05,04,04,25,4.60
2011,05,04,04,26,4.60
2011,05,04,04,27,4.70
2011,05,04,04,28,4.70
2011,05,04,04,29,4.70
2011,05,04,04,30,4.70
2011,05,04,04,31,4.70
2011,05,04,04,32,4.70
2011,05,04,04,33,4.70
2011,05,04,04,34,4.70
2011,05,04,04,35,4.70
2011,05,04,04,36,4.70
2011,05,04,04,37,4.80
2011,05,04,04,38,4.80
2011,05,04,04,39,4.80
2011,05,04,04,40,4.80
2011,05,04,04,41,4.80
2011,05,04,04,42,4.80
2011,05,04,04,43,4.80
2011,05,04,04,44,4.80
2011,05,04,04,45,4.80
2011,05,04,04,46,4.80
2011,05,04,04,47,4.80
2011,05,04,04,48,4.70
2011,05,04,04,49,4.70
2011,05,04,04,50,4.70
2011,05,04,04,51,4.60
2011,05,04,04,52,4.60
2011,05,04,04,53,4.50
2011,05,04,04,54,4.50
2011,05,04,04,55,4.50
2011,05,04,04,56,4.40
2011,05,04,04,57,4.30
2011,05,04,04,58,4.30
2011,05,04,04,59,4.20
2011,05,04,05,00,4.20
2011,05,04,05,01,4.10
2011,05,04,05,02,4.10
2011,05,04,05,03,4.00
2011,05,04,05,04,3.90
2011,05,04,05,05,3.90
2011,05,04,05,06,3.80
2011,05,04,05,07,3.80
2011,05,04,05,08,3.70
2011,05,04,05,09,3.70
2011,05,04,05,10,3.70
2011,05,04,05,11,3.60
2011,05,04,05,12,3.60
2011,05,04,05,13,3.60
2011,05,04,05,14,3.50
2011,05,04,05,15,3.50
2011,05,04,05,16,3.40
2011,05,04,05,17,3.40
2011,05,04,05,18,3.40
2011,05,04,05,19,3.40
2011,05,04,05,20,3.30
2011,05,04,05,21,3.30
2011,05,04,05,22,3.30
2011,05,04,05,23,3.30
2011,05,04,05,24,3.30
2011,05,04,05,25,3.30
2011,05,04,05,26,3.30
2011,05,04,05,27,3.30
2011,05,04,05,28,3.20
2011,05,04,05,29,3.20
2011,05,04,05,30,3.20
2011,05,04,05,31,3.20
2011,05,04,05,32,3.20
2011,05,04,05,33,3.10
2011,05,04,05,34,3.10
2011,05,04,05,35,3.10
2011,05,04,05,36,3.10
2011,05,04,05,37,3.00
2011,05,04,05,38,3.00
2011,05,04,05,39,3.00
2011,05,04,05,40,3.00
2011,05,04,05,41,3.00
2011,05,04,05,42,3.00
2011,05,04,05,43,2.90
2011,05,04,05,44,2.90
2011,05,04,05,45,2.90
2011,05,04,05,46,2.90
2011,05,04,05,47,2.90
2011,05,04,05,48,2.90
2011,05,04,05,49,2.90
2011,05,04,05,50,2.90
2011,05,04,05,51,3.00
2011,05,04,05,52,3.00
2011,05,04,05,53,3.00
2011,05,04,05,54,3.00
2011,05,04,05,55,3.00
2011,05,04,05,56,3.00
2011,05,04,05,57,3.00
2011,05,04,05,58,3.00
2011,05,04,05,59,3.00
2011,05,04,06,00,3.00
2011,05,04,06,01,3.00
2011,05,04,06,02,2.90
2011,05,04,06,03,2.90
2011,05,04,06,04,2.90
2011,05,04,06,05,2.80
2011,05,04,06,06,2.80
2011,05,04,06,07,2.80
2011,05,04,06,08,2.80
2011,05,04,06,09,2.80
2011,05,04,06,10,2.70
2011,05,04,06,11,2.70
2011,05,04,06,12,2.70
2011,05,04,06,13,2.70
2011,05,04,06,14,2.70
2011,05,04,06,15,2.70
2011,05,04,06,16,2.70
2011,05,04,06,17,2.70
2011,05,04,06,18,2.70
2011,05,04,06,19,2.70
2011,05,04,06,20,2.70
2011,05,04,06,21,2.70
2011,05,04,06,22,2.70
2011,05,04,06,23,2.80
2011,05,04,06,24,2.70
2011,05,04,06,25,2.70
2011,05,04,06,26,2.70
2011,05,04,06,27,2.70
2011,05,04,06,28,2.70
2011,05,04,06,29,2.70
2011,05,04,06,30,2.70
2011,05,04,06,31,2.70
2011,05,04,06,32,2.70
2011,05,04,06,33,2.70
2011,05,04,06,34,2.70
2011,05,04,06,35,2.70
2011,05,04,06,36,2.70
2011,05,04,06,37,2.70
2011,05,04,06,38,2.70
2011,05,04,06,39,2.70
2011,05,04,06,40,2.70
2011,05,04,06,41,2.70
2011,05,04,06,42,2.80
2011,05,04,06,43,2.80
2011,05,04,06,44,2.80
2011,05,04,06,45,2.80
2011,05,04,06,46,2.90
2011,05,04,06,47,2.90
2011,05,04,06,48,2.90
2011,05,04,06,49,2.90
2011,05,04,06,50,3.00
2011,05,04,06,51,3.00
2011,05,04,06,52,3.00
2011,05,04,06,53,3.00
2011,05,04,06,54,3.10
2011,05,04,06,55,3.10
2011,05,04,06,56,3.10
2011,05,04,06,57,3.10
2011,05,04,06,58,3.20
2011,05,04,06,59,3.20
2011,05,04,07,00,3.20
2011,05,04,07,01,3.20
2011,05,04,07,02,3.30
2011,05,04,07,03,3.30
2011,05,04,07,04,3.30
2011,05,04,07,05,3.30
2011,05,04,07,06,3.40
2011,05,04,07,07,3.40
2011,05,04,07,08,3.40
2011,05,04,07,09,3.40
2011,05,04,07,10,3.40
2011,05,04,07,11,3.50
2011,05,04,07,12,3.50
2011,05,04,07,13,3.50
2011,05,04,07,14,3.50
2011,05,04,07,15,3.60
2011,05,04,07,16,3.60
2011,05,04,07,17,3.60
2011,05,04,07,18,3.60
2011,05,04,07,19,3.60
2011,05,04,07,20,3.70
2011,05,04,07,21,3.70
2011,05,04,07,22,3.70
2011,05,04,07,23,3.80
2011,05,04,07,24,3.80
2011,05,04,07,25,3.90
2011,05,04,07,26,3.90
2011,05,04,07,27,4.00
2011,05,04,07,28,4.10
2011,05,04,07,29,4.20
2011,05,04,07,30,4.20
2011,05,04,07,31,4.30
2011,05,04,07,32,4.40
2011,05,04,07,33,4.50
2011,05,04,07,34,4.60
2011,05,04,07,35,4.70
2011,05,04,07,36,4.80
2011,05,04,07,37,4.80
2011,05,04,07,38,4.90
2011,05,04,07,39,4.90
2011,05,04,07,40,5.00
2011,05,04,07,41,5.10
2011,05,04,07,42,5.20
2011,05,04,07,43,5.30
2011,05,04,07,44,5.40
2011,05,04,07,45,5.40
2011,05,04,07,46,5.50
2011,05,04,07,47,5.60
2011,05,04,07,48,5.70
2011,05,04,07,49,5.80
2011,05,04,07,50,5.80
2011,05,04,07,51,5.90
2011,05,04,07,52,5.90
2011,05,04,07,53,6.00
2011,05,04,07,54,6.00
2011,05,04,07,55,6.10
2011,05,04,07,56,6.10
2011,05,04,07,57,6.10
2011,05,04,07,58,6.20
2011,05,04,07,59,6.20
2011,05,04,08,00,6.30
2011,05,04,08,01,6.30
2011,05,04,08,02,6.40
2011,05,04,08,03,6.40
2011,05,04,08,04,6.50
2011,05,04,08,05,6.50
2011,05,04,08,06,6.60
2011,05,04,08,07,6.70
2011,05,04,08,08,6.80
2011,05,04,08,09,6.90
2011,05,04,08,10,7.00
2011,05,04,08,11,7.10
2011,05,04,08,12,7.20
2011,05,04,08,13,7.30
2011,05,04,08,14,7.40
2011,05,04,08,15,7.50
2011,05,04,08,16,7.60
2011,05,04,08,17,7.70
2011,05,04,08,18,7.70
2011,05,04,08,19,7.80
2011,05,04,08,20,7.80
2011,05,04,08,21,7.90
2011,05,04,08,22,7.90
2011,05,04,08,23,8.00
2011,05,04,08,24,8.00
2011,05,04,08,25,8.10
2011,05,04,08,26,8.20
2011,05,04,08,27,8.20
2011,05,04,08,28,8.30
2011,05,04,08,29,8.30
2011,05,04,08,30,8.40
2011,05,04,08,31,8.40
2011,05,04,08,32,8.40
2011,05,04,08,33,8.50
2011,05,04,08,34,8.50
2011,05,04,08,35,8.50
2011,05,04,08,36,8.50
2011,05,04,08,37,8.50
2011,05,04,08,38,8.60
2011,05,04,08,39,8.70
2011,05,04,08,40,8.70
2011,05,04,08,41,8.80
2011,05,04,08,42,8.80
2011,05,04,08,43,8.80
2011,05,04,08,44,8.80
2011,05,04,08,45,8.80
2011,05,04,08,46,8.80
2011,05,04,08,47,8.90
2011,05,04,08,48,8.90
2011,05,04,08,49,8.90
2011,05,04,08,50,8.90
2011,05,04,08,51,8.90
2011,05,04,08,52,8.80
2011,05,04,08,53,8.80
2011,05,04,08,54,8.90
2011,05,04,08,55,8.90
2011,05,04,08,56,8.90
2011,05,04,08,57,8.90
2011,05,04,08,58,8.90
2011,05,04,08,59,9.00
2011,05,04,09,00,9.00
2011,05,04,09,01,9.00
2011,05,04,09,02,9.10
2011,05,04,09,03,9.20
2011,05,04,09,04,9.30
2011,05,04,09,05,9.30
2011,05,04,09,06,9.40
2011,05,04,09,07,9.40
2011,05,04,09,08,9.40
2011,05,04,09,09,9.40
2011,05,04,09,10,9.50
2011,05,04,09,11,9.50
2011,05,04,09,12,9.50
2011,05,04,09,13,9.50
2011,05,04,09,14,9.50
2011,05,04,09,15,9.50
2011,05,04,09,16,9.60
2011,05,04,09,17,9.60
2011,05,04,09,18,9.70
2011,05,04,09,19,9.70
2011,05,04,09,20,9.70
2011,05,04,09,21,9.70
2011,05,04,09,22,9.70
2011,05,04,09,23,9.70
2011,05,04,09,24,9.70
2011,05,04,09,25,9.80
2011,05,04,09,26,9.80
2011,05,04,09,27,9.90
2011,05,04,09,28,9.90
2011,05,04,09,29,10.00
2011,05,04,09,30,10.10
2011,05,04,09,31,10.20
2011,05,04,09,32,10.30
2011,05,04,09,33,10.40
2011,05,04,09,34,10.40
2011,05,04,09,35,10.40
2011,05,04,09,36,10.40
2011,05,04,09,37,10.40
2011,05,04,09,38,10.40
2011,05,04,09,39,10.40
2011,05,04,09,40,10.50
2011,05,04,09,41,10.50
2011,05,04,09,42,10.60
2011,05,04,09,43,10.60
2011,05,04,09,44,10.60
2011,05,04,09,45,10.60
2011,05,04,09,46,10.60
2011,05,04,09,47,10.60
2011,05,04,09,48,10.60
2011,05,04,09,49,10.50
2011,05,04,09,50,10.50
2011,05,04,09,51,10.50
2011,05,04,09,52,10.50
2011,05,04,09,53,10.60
2011,05,04,09,54,10.60
2011,05,04,09,55,10.70
2011,05,04,09,56,10.80
2011,05,04,09,57,10.80
2011,05,04,09,58,10.80
2011,05,04,09,59,10.80
2011,05,04,10,00,10.80
2011,05,04,10,01,10.70
2011,05,04,10,02,10.70
2011,05,04,10,03,10.60
2011,05,04,10,04,10.60
2011,05,04,10,05,10.60
2011,05,04,10,06,10.60
2011,05,04,10,07,10.70
2011,05,04,10,08,10.70
2011,05,04,10,09,10.70
2011,05,04,10,10,10.80
2011,05,04,10,11,10.80
2011,05,04,10,12,10.80
2011,05,04,10,13,10.90
2011,05,04,10,14,11.10
2011,05,04,10,15,11.20
2011,05,04,10,16,11.30
2011,05,04,10,17,11.30
2011,05,04,10,18,11.30
2011,05,04,10,19,11.20
2011,05,04,10,20,11.20
2011,05,04,10,21,11.20
2011,05,04,10,22,11.30
2011,05,04,10,23,11.30
2011,05,04,10,24,11.30
2011,05,04,10,25,11.40
2011,05,04,10,26,11.50
2011,05,04,10,27,11.60
2011,05,04,10,28,11.60
2011,05,04,10,29,11.70
2011,05,04,10,30,11.80
2011,05,04,10,31,11.90
2011,05,04,10,32,11.90
2011,05,04,10,33,11.90
2011,05,04,10,34,11.90
2011,05,04,10,35,11.90
2011,05,04,10,36,12.00
2011,05,04,10,37,11.90
2011,05,04,10,38,11.80
2011,05,04,10,39,11.80
2011,05,04,10,40,11.80
2011,05,04,10,41,11.90
2011,05,04,10,42,12.00
2011,05,04,10,43,12.10
2011,05,04,10,44,12.20
2011,05,04,10,45,12.20
2011,05,04,10,46,12.10
2011,05,04,10,47,12.10
2011,05,04,10,48,12.10
2011,05,04,10,49,12.10
2011,05,04,10,50,12.00
2011,05,04,10,51,11.90
2011,05,04,10,52,11.90
2011,05,04,10,53,11.90
2011,05,04,10,54,11.90
2011,05,04,10,55,12.00
2011,05,04,10,56,12.10
2011,05,04,10,57,12.20
2011,05,04,10,58,12.30
2011,05,04,10,59,12.30
2011,05,04,11,00,12.30
2011,05,04,11,01,12.30
2011,05,04,11,02,12.30
2011,05,04,11,03,12.30
2011,05,04,11,04,12.30
2011,05,04,11,05,12.30
2011,05,04,11,06,12.30
2011,05,04,11,07,12.20
2011,05,04,11,08,12.10
2011,05,04,11,09,12.10
2011,05,04,11,10,12.10
2011,05,04,11,11,12.00
2011,05,04,11,12,12.00
2011,05,04,11,13,11.90
2011,05,04,11,14,11.80
2011,05,04,11,15,11.70
2011,05,04,11,16,11.70
2011,05,04,11,17,11.80
2011,05,04,11,18,11.80
2011,05,04,11,19,11.90
2011,05,04,11,20,12.00
2011,05,04,11,21,12.10
2011,05,04,11,22,12.20
2011,05,04,11,23,12.20
2011,05,04,11,24,12.30
2011,05,04,11,25,12.30
2011,05,04,11,26,12.40
2011,05,04,11,27,12.50
2011,05,04,11,28,12.50
2011,05,04,11,29,12.40
2011,05,04,11,30,12.30
2011,05,04,11,31,12.30
2011,05,04,11,32,12.20
2011,05,04,11,33,12.30
2011,05,04,11,34,12.30
2011,05,04,11,35,12.20
2011,05,04,11,36,12.20
2011,05,04,11,37,12.20
2011,05,04,11,38,12.20
2011,05,04,11,39,12.20
2011,05,04,11,40,12.20
2011,05,04,11,41,12.20
2011,05,04,11,42,12.20
2011,05,04,11,43,12.10
2011,05,04,11,44,12.00
2011,05,04,11,45,11.90
2011,05,04,11,46,11.90
2011,05,04,11,47,11.90
2011,05,04,11,48,12.00
2011,05,04,11,49,12.00
2011,05,04,11,50,11.90
2011,05,04,11,51,11.90
2011,05,04,11,52,12.00
2011,05,04,11,53,12.10
2011,05,04,11,54,12.10
2011,05,04,11,55,12.20
2011,05,04,11,56,12.20
2011,05,04,11,57,12.30
2011,05,04,11,58,12.40
2011,05,04,11,59,12.40
2011,05,04,12,00,12.50
2011,05,04,12,01,12.50
2011,05,04,12,02,12.60
2011,05,04,12,03,12.70
2011,05,04,12,04,12.80
2011,05,04,12,05,13.00
2011,05,04,12,06,13.10
2011,05,04,12,07,13.10
2011,05,04,12,08,13.20
2011,05,04,12,09,13.30
2011,05,04,12,10,13.40
2011,05,04,12,11,13.50
2011,05,04,12,12,13.40
2011,05,04,12,13,13.30
2011,05,04,12,14,13.20
2011,05,04,12,15,13.10
2011,05,04,12,16,13.00
2011,05,04,12,17,12.90
2011,05,04,12,18,12.90
2011,05,04,12,19,13.00
2011,05,04,12,20,13.00
2011,05,04,12,21,13.10
2011,05,04,12,22,13.10
2011,05,04,12,23,13.10
2011,05,04,12,24,13.10
2011,05,04,12,25,13.10
2011,05,04,12,26,13.20
2011,05,04,12,27,13.10
2011,05,04,12,28,13.00
2011,05,04,12,29,12.90
2011,05,04,12,30,12.80
2011,05,04,12,31,12.80
2011,05,04,12,32,12.80
2011,05,04,12,33,12.80
2011,05,04,12,34,12.80
2011,05,04,12,35,12.80
2011,05,04,12,36,12.80
2011,05,04,12,37,12.90
2011,05,04,12,38,13.00
2011,05,04,12,39,13.20
2011,05,04,12,40,13.20
2011,05,04,12,41,13.30
2011,05,04,12,42,13.30
2011,05,04,12,43,13.20
2011,05,04,12,44,13.20
2011,05,04,12,45,13.20
2011,05,04,12,46,13.20
2011,05,04,12,47,13.30
2011,05,04,12,48,13.30
2011,05,04,12,49,13.40
2011,05,04,12,50,13.50
2011,05,04,12,51,13.60
2011,05,04,12,52,13.50
2011,05,04,12,53,13.40
2011,05,04,12,54,13.30
2011,05,04,12,55,13.20
2011,05,04,12,56,13.20
2011,05,04,12,57,13.20
2011,05,04,12,58,13.20
2011,05,04,12,59,13.30
2011,05,04,13,00,13.30
2011,05,04,13,01,13.30
2011,05,04,13,02,13.30
2011,05,04,13,03,13.20
2011,05,04,13,04,13.20
2011,05,04,13,05,13.30
2011,05,04,13,06,13.40
2011,05,04,13,07,13.50
2011,05,04,13,08,13.50
2011,05,04,13,09,13.50
2011,05,04,13,10,13.50
2011,05,04,13,11,13.50
2011,05,04,13,12,13.50
2011,05,04,13,13,13.50
2011,05,04,13,14,13.50
2011,05,04,13,15,13.50
2011,05,04,13,16,13.60
2011,05,04,13,17,13.60
2011,05,04,13,18,13.60
2011,05,04,13,19,13.50
2011,05,04,13,20,13.40
2011,05,04,13,21,13.30
2011,05,04,13,22,13.40
2011,05,04,13,23,13.40
2011,05,04,13,24,13.50
2011,05,04,13,25,13.60
2011,05,04,13,26,13.40
2011,05,04,13,27,13.20
2011,05,04,13,28,13.10
2011,05,04,13,29,13.00
2011,05,04,13,30,13.00
2011,05,04,13,31,13.10
2011,05,04,13,32,13.10
2011,05,04,13,33,13.20
2011,05,04,13,34,13.20
2011,05,04,13,35,13.20
2011,05,04,13,36,13.20
2011,05,04,13,37,13.20
2011,05,04,13,38,13.30
2011,05,04,13,39,13.20
2011,05,04,13,40,13.20
2011,05,04,13,41,13.20
2011,05,04,13,42,13.10
2011,05,04,13,43,13.10
2011,05,04,13,44,13.10
2011,05,04,13,45,13.10
2011,05,04,13,46,13.20
2011,05,04,13,47,13.20
2011,05,04,13,48,13.20
2011,05,04,13,49,13.30
2011,05,04,13,50,13.40
2011,05,04,13,51,13.40
2011,05,04,13,52,13.30
2011,05,04,13,53,13.30
2011,05,04,13,54,13.40
2011,05,04,13,55,13.40
2011,05,04,13,56,13.50
2011,05,04,13,57,13.60
2011,05,04,13,58,13.70
2011,05,04,13,59,13.80
2011,05,04,14,00,13.90
2011,05,04,14,01,14.00
2011,05,04,14,02,13.90
2011,05,04,14,03,13.90
2011,05,04,14,04,13.90
2011,05,04,14,05,13.90
2011,05,04,14,06,13.90
2011,05,04,14,07,13.90
2011,05,04,14,08,13.90
2011,05,04,14,09,14.00
2011,05,04,14,10,14.20
2011,05,04,14,11,14.20
2011,05,04,14,12,14.20
2011,05,04,14,13,14.20
2011,05,04,14,14,14.20
2011,05,04,14,15,14.10
2011,05,04,14,16,14.10
2011,05,04,14,17,14.00
2011,05,04,14,18,14.00
2011,05,04,14,19,13.90
2011,05,04,14,20,13.90
2011,05,04,14,21,14.00
2011,05,04,14,22,14.10
2011,05,04,14,23,14.10
2011,05,04,14,24,14.20
2011,05,04,14,25,14.20
2011,05,04,14,26,14.10
2011,05,04,14,27,14.10
2011,05,04,14,28,14.10
2011,05,04,14,29,14.00
2011,05,04,14,30,14.10
2011,05,04,14,31,14.10
2011,05,04,14,32,14.10
2011,05,04,14,33,14.10
2011,05,04,14,34,14.10
2011,05,04,14,35,14.20
2011,05,04,14,36,14.30
2011,05,04,14,37,14.40
2011,05,04,14,38,14.50
2011,05,04,14,39,14.60
2011,05,04,14,40,14.70
2011,05,04,14,41,14.80
2011,05,04,14,42,14.90
2011,05,04,14,43,14.90
2011,05,04,14,44,14.80
2011,05,04,14,45,14.70
2011,05,04,14,46,14.60
2011,05,04,14,47,14.60
2011,05,04,14,48,14.50
2011,05,04,14,49,14.40
2011,05,04,14,50,14.30
2011,05,04,14,51,14.20
2011,05,04,14,52,14.10
2011,05,04,14,53,14.00
2011,05,04,14,54,14.00
2011,05,04,14,55,14.00
2011,05,04,14,56,14.00
2011,05,04,14,57,13.90
2011,05,04,14,58,14.00
2011,05,04,14,59,14.00
2011,05,04,15,00,14.00
2011,05,04,15,01,14.00
2011,05,04,15,02,14.00
2011,05,04,15,03,13.90
2011,05,04,15,04,13.90
2011,05,04,15,05,13.90
2011,05,04,15,06,13.90
2011,05,04,15,07,13.90
2011,05,04,15,08,13.90
2011,05,04,15,09,14.00
2011,05,04,15,10,14.20
2011,05,04,15,11,14.20
2011,05,04,15,12,14.30
2011,05,04,15,13,14.30
2011,05,04,15,14,14.30
2011,05,04,15,15,14.40
2011,05,04,15,16,14.40
2011,05,04,15,17,14.40
2011,05,04,15,18,14.30
2011,05,04,15,19,14.30
2011,05,04,15,20,14.30
2011,05,04,15,21,14.30
2011,05,04,15,22,14.20
2011,05,04,15,23,14.10
2011,05,04,15,24,14.10
2011,05,04,15,25,14.10
2011,05,04,15,26,14.20
2011,05,04,15,27,14.20
2011,05,04,15,28,14.20
2011,05,04,15,29,14.20
2011,05,04,15,30,14.20
2011,05,04,15,31,14.30
2011,05,04,15,32,14.30
2011,05,04,15,33,14.40
2011,05,04,15,34,14.50
2011,05,04,15,35,14.50
2011,05,04,15,36,14.70
2011,05,04,15,37,14.70
2011,05,04,15,38,14.80
2011,05,04,15,39,14.90
2011,05,04,15,40,14.90
2011,05,04,15,41,14.90
2011,05,04,15,42,14.90
2011,05,04,15,43,14.90
2011,05,04,15,44,14.90
2011,05,04,15,45,14.90
2011,05,04,15,46,14.80
2011,05,04,15,47,14.70
2011,05,04,15,48,14.60
2011,05,04,15,49,14.60
2011,05,04,15,50,14.50
2011,05,04,15,51,14.50
2011,05,04,15,52,14.40
2011,05,04,15,53,14.40
2011,05,04,15,54,14.40
2011,05,04,15,55,14.40
2011,05,04,15,56,14.40
2011,05,04,15,57,14.50
2011,05,04,15,58,14.50
2011,05,04,15,59,14.60
2011,05,04,16,00,14.70
2011,05,04,16,01,14.80
2011,05,04,16,02,14.70
2011,05,04,16,03,14.70
2011,05,04,16,04,14.60
2011,05,04,16,05,14.60
2011,05,04,16,06,14.60
2011,05,04,16,07,14.60
2011,05,04,16,08,14.60
2011,05,04,16,09,14.70
2011,05,04,16,10,14.70
2011,05,04,16,11,14.80
2011,05,04,16,12,15.00
2011,05,04,16,13,15.10
2011,05,04,16,14,15.10
2011,05,04,16,15,15.20
2011,05,04,16,16,15.10
2011,05,04,16,17,15.10
2011,05,04,16,18,15.10
2011,05,04,16,19,15.10
2011,05,04,16,20,15.10
2011,05,04,16,21,15.10
2011,05,04,16,22,15.10
2011,05,04,16,23,15.00
2011,05,04,16,24,14.90
2011,05,04,16,25,14.70
2011,05,04,16,26,14.70
2011,05,04,16,27,14.60
2011,05,04,16,28,14.60
2011,05,04,16,29,14.60
2011,05,04,16,30,14.60
2011,05,04,16,31,14.60
2011,05,04,16,32,14.70
2011,05,04,16,33,14.70
2011,05,04,16,34,14.70
2011,05,04,16,35,14.70
2011,05,04,16,36,14.70
2011,05,04,16,37,14.70
2011,05,04,16,38,14.80
2011,05,04,16,39,14.80
2011,05,04,16,40,14.90
2011,05,04,16,41,14.90
2011,05,04,16,42,15.00
2011,05,04,16,43,15.10
2011,05,04,16,44,15.20
2011,05,04,16,45,15.20
2011,05,04,16,46,15.10
2011,05,04,16,47,15.00
2011,05,04,16,48,14.90
2011,05,04,16,49,14.90
2011,05,04,16,50,14.80
2011,05,04,16,51,14.80
2011,05,04,16,52,14.70
2011,05,04,16,53,14.60
2011,05,04,16,54,14.60
2011,05,04,16,55,14.50
2011,05,04,16,56,14.50
2011,05,04,16,57,14.40
2011,05,04,16,58,14.50
2011,05,04,16,59,14.50
2011,05,04,17,00,14.50
2011,05,04,17,01,14.50
2011,05,04,17,02,14.40
2011,05,04,17,03,14.40
2011,05,04,17,04,14.40
2011,05,04,17,05,14.40
2011,05,04,17,06,14.50
2011,05,04,17,07,14.50
2011,05,04,17,08,14.50
2011,05,04,17,09,14.60
2011,05,04,17,10,14.50
2011,05,04,17,11,14.50
2011,05,04,17,12,14.50
2011,05,04,17,13,14.50
2011,05,04,17,14,14.50
2011,05,04,17,15,14.50
2011,05,04,17,16,14.40
2011,05,04,17,17,14.40
2011,05,04,17,18,14.40
2011,05,04,17,19,14.40
2011,05,04,17,20,14.40
2011,05,04,17,21,14.50
2011,05,04,17,22,14.60
2011,05,04,17,23,14.60
2011,05,04,17,24,14.70
2011,05,04,17,25,14.80
2011,05,04,17,26,14.80
2011,05,04,17,27,14.80
2011,05,04,17,28,14.80
2011,05,04,17,29,14.80
2011,05,04,17,30,14.70
2011,05,04,17,31,14.70
2011,05,04,17,32,14.70
2011,05,04,17,33,14.70
2011,05,04,17,34,14.60
2011,05,04,17,35,14.60
2011,05,04,17,36,14.50
2011,05,04,17,37,14.50
2011,05,04,17,38,14.50
2011,05,04,17,39,14.50
2011,05,04,17,40,14.40
2011,05,04,17,41,14.40
2011,05,04,17,42,14.40
2011,05,04,17,43,14.40
2011,05,04,17,44,14.40
2011,05,04,17,45,14.50
2011,05,04,17,46,14.50